OneWeb SL0297

operational
NORAD ID: 49086 Int'l Des: 2021-075 Owner: ONEWEBN Country: UK Constellation: oneweb
LEOCIRCULARPOLARONEWEB_TYPE

Über OneWeb SL0297

Beschreibung wird geladen...

Live-Position

3D-Globus wird geladen...

Nächste Überflüge

Höhenverlauf

Altitude vs Time

uPlot chart will show altitude changes over time

Zweizeiliger Elementsatz

1 49086U 21075M 26033.47710521 .00000460 00000-0 12440-2 0 9996
2 49086 87.8938 17.4273 0001947 85.4458 274.6893 13.12442710217511
Epoch: 2. Feb. 2026 • Age: 14 hours

Aktueller Status

Höhe 1216.7 km
Geschwindigkeit 7.25 km/s
Subsatellitenpunkt 28.27°N, 47.53°E
Startdatum 21. Aug. 2021
Alter 4.4 years
Typ internet

Technische Details

Klassifizierung Payload
Masse 148.00 kg
Trockenmasse 140.00 kg
Gesamtmasse 148.00 kg
Länge 1.30 m
Durchmesser 1.00 m
Spannweite 5.00 m
Form Trapezoid+2 pan
Hersteller ONEWUS
Bus-Typ ARROW
Phasenstatus In Orbit
Besitzer/Staat ONEWEBN/UK

Große Konstellationen

Loading constellations...